[Date Prev][Date Next][Thread Prev][Thread Next] - [Date Index][Thread Index][Author Index]

2 Line ISS Keps 5-3



ISS
1 25544U 98067A   04124.17045666  .00019603  00000-0  16962-3 0  6955
2 25544  51.6286 195.1930 0011254  94.2043 286.1071 15.69120158311258


----
Via the sarex mailing list at AMSAT.ORG courtesy of AMSAT-NA.
To unsubscribe, send "unsubscribe sarex" to Majordomo@amsat.org



AMSAT Top AMSAT Home